FENGYUN 1C DEB

Satellite information

Favourite Embed

Satellite Type and Status

DEBRISIN ORBIT

Key statistics

Satellite FENGYUN 1C DEB at a glance.

Uptime

9615

Days in orbit

Revolutions

≈ 14.5

Per day

Orbit

SSO

Sun Synchronous Orbit

Inclination

99.0

Latest

Satellite identification and parameters

Extended collection of information and parameters for FENGYUN 1C DEB.

Object identification

Identified? True

Debris? True

Object name: FENGYUN 1C DEB

International designator: 1999-025XJ

Object number (NORAD): 30249

Object ID (CCSDS): 30249

Country: PEOPLES REPUBLIC OF CHINA (PRC)

Current information (Y/N): Y

RCS size: SMALL

Orbital parameters

Period: 99.092 minutes

Inclination: 98.9607 deg

SMA: 7093.351 km

Apoapsis: 735.63 km

Periapsis: 694.802 km

RAAN: 44.2441 deg

Eccentricy: 0.00287792

Argument of periapsis: 344.3357 deg

Mean anomaly: 132.6417 deg

Mean motion: 14.53200666 rev/day

Mean motion (dot): 0.00017866 rev/day2

B* drag term: 0.0042895223 1/REarth

Two-line elements (TLE)

Creation date: Sept. 4, 2025, 10:13 a.m.

Reference frame: TEME

Reference center: EARTH

Epoch: Sept. 4, 2025, 12:41 a.m. UTC

TLE line 0: 0 FENGYUN 1C DEB

TLE line 1: 1 30249U 99025XJ 25247.02885788 .00017866 00000-0 42895-2 0 9997

TLE line 2: 2 30249 98.9607 44.2441 0028779 344.3357 132.6417 14.53200666961137

Live tracking on map

Real-time ground track for satellite FENGYUN 1C DEB.

In-orbit conjunctions

A list of the most updated potential collisions computed for object FENGYUN 1C DEB.

Target Orbit TCA Probability of collision Miss distance Type
FENGYUN 1C DEB SSO 2025-05-29 13:54:52 0.000114575 163.0 (m) DEBRIS
CZ-6A DEB LEO 2025-01-21 14:01:19 0.0004142942 99.0 (m) DEBRIS
COSMOS 2251 DEB LEO 2024-11-12 00:37:17 0.000144281 209.0 (m) DEBRIS
IRIDIUM 63 LEO 2024-09-11 08:44:33 0.0001868376 437.0 (m) PAYLOAD

Associated space launch

Chinese polar orbiting meteorological satellite

FENGYUN 1C DEB was lifted into orbit during the mission ‘Long March 4B | Feng Yun 1C’, on board a Long March 4B space rocket.

The launch took place on May 10, 1999, 1:33 a.m. from Launch Complex 7.

For more information about the launch, click the button.

Launch to space Long March 4B | Feng Yun 1C
Long March 4B | Feng Yun 1C

Agency: N/A

Status: Launch Successful

Launch date: May 10, 1999, 1:33 a.m. UTC

Rocket: Long March 4B

Launch pad: Launch Complex 7

Location: Taiyuan Satellite Launch Center, People's Republic of China

...

Latest news about this satellite

There are no fresh news available about this satellite. Check back as we update our databases every day.


Newsletter sign-up

Weekly statistics, charts and insights to help you stay on top of the space industry.